Location: Uhersky Brod
(49.0330°N, 17.6500°E)
Time: 14:32:22
(UTC+02:00)

ISS - Visible Passes

Search period start: 17 October 2019 00:00
Search period end: 27 October 2019 00:00
Orbit: 411 x 421 km, 51.6° (Epoch: 17 October)

Date Brightness Start Highest point End Pass type
(mag) Time Alt. Az. Time Alt. Az. Time Alt. Az.
24 Oct -1.3 06:50:08 10° SSW 06:52:53 24° SE 06:55:39 10° E visible
25 Oct -0.9 06:02:23 10° S 06:04:30 16° SE 06:06:36 10° E visible
26 Oct -2.8 06:48:58 10° SW 06:52:14 49° SSE 06:55:30 10° ENE visible
